Location: Rowland
(34.5359°N, 79.2929°W)
Time: 16:55:13
(UTC+00:00)

A-11 Canister half - Pass Details

Date: 07 October 2022
Orbit: 1515 x 1684 km, 47.2° (Epoch: 06 December)

Event Time Altitude Azimuth Distance (km) Brightness Sun altitude
Rises 02:00:59 0° 262° (W) 4,847 12.3 -38.5°
Reaches altitude 10° 02:04:21 10° 268° (W) 3,839 11.7 -39.2°
Maximum altitude 02:13:39 47° 341° (NNW) 1,994 9.6 -40.9°
Enters shadow 02:15:07 44° 5° (N) 2,054 9.6 -41.2°
